Regional Weather Roundup
Issued by NWS Sioux Falls, SD

Home | Current Version | Previous Version | Graphics & Text | Print | Product List | Glossary On
Versions: 1 2 3 4 5 6 7 8 9 10 11 12 13 14 15 16 17 18 19 20 21 22 23 24 25 26 27 28 29 30 31 32 33 34 35 36 37 38 39 40 41 42 43 44 45 46 47 48 49 50
000
ASUS43 KFSD 290802
RWRFSD

WEATHER ROUNDUP FOR SE SOUTH DAKOTA/SW MINNESOTA/NW IOWA
NATIONAL WEATHER SERVICE SIOUX FALLS SD
300 AM CDT SUN MAY 29 2016

NOTE: "FAIR" INDICATES FEW OR NO CLOUDS BELOW 12,000 FEET WITH NO
SIGNIFICANT WEATHER AND OR OBSTRUCTIONS TO VISIBILITY.


SDZ038>040-050-052>070-290900-
SOUTHEAST SOUTH DAKOTA

CITY           SKY/WX    TMP DP  RH WIND       PRES   REMARKS
BROOKINGS      CLOUDY    56  54  93 CALM      29.94R
CHAMBERLAIN    NOT AVBL
HURON          PTCLDY    58  55  90 W6        29.94R
MADISON        CLOUDY    57  57 100 W7        29.96R
MITCHELL       CLOUDY    61  59  93 W8        29.96R
SIOUX FALLS    CLEAR     56  54  93 CALM      29.95S
WINNER         FAIR      58  52  80 SW6       30.00S
YANKTON        CLOUDY    57  55  94 SW6       29.96S
$$

MNZ071-072-080-081-089-090-097-098-290900-
SOUTHWEST MINNESOTA

CITY           SKY/WX    TMP DP  RH WIND       PRES   REMARKS
FAIRMONT       CLEAR     59  55  88 W10       29.91R
JACKSON        PTCLDY    59  55  88 W8        29.93R
LUVERNE        CLEAR     55  54  94 W8        29.96R
MARSHALL       CLOUDY    59  57  93 W8        29.91R
MONTEVIDEO     PTCLDY    59  57  94 NW8       29.91R
PIPESTONE      CLEAR     57  55  94 W3        29.95R FOG
REDWOOD FALLS  CLOUDY    61  57  87 W13       29.88S
TRACY          PTCLDY    60  59  95 W5        29.92R
WINDOM         MOCLDY    61  57  88 CALM      29.92S
WORTHINGTON    MOCLDY    58  57  97 W12       29.95R
$$

IAZ001>003-012>014-020>022-031-032-NEZ013-014-SDZ071-290900-
NORTHWEST IOWA

CITY           SKY/WX    TMP DP  RH WIND       PRES   REMARKS
ESTHERVILLE    CLEAR     58  57  97 W9        29.93R
SIOUX CITY     CLEAR     56  54  93 CALM      29.96F
SPENCER        CLEAR     59  57  93 W10       29.95R
STORM LAKE     CLOUDY    59  59 100 W12       29.97R
$$

ABBREVIATIONS USED IN REMARKS
   TC - TEMPERATURE IN CELSIUS
  WCI - WIND CHILL INDEX
   HX - HEAT INDEX
  VSB - VISIBILITY





USA.gov is the U.S. government's official web portal to all federal, state and local government web resources and services.